TimeEST,TemperatureF,Dew PointF,Humidity,Sea Level PressureIn,VisibilityMPH,Wind Direction,Wind SpeedMPH,Gust SpeedMPH,PrecipitationIn,Events,Conditions,WindDirDegrees,DateUTC
12:54 AM,32.0,30.0,92,30.06,0.5,NE,6.9,-,N/A,Fog,Fog,50,2013-12-23 05:54:00
1:54 AM,32.0,28.9,88,30.08,0.5,NNE,8.1,-,N/A,Fog,Fog,20,2013-12-23 06:54:00
2:54 AM,32.0,28.9,88,30.08,0.5,NE,6.9,-,N/A,Fog,Fog,50,2013-12-23 07:54:00
3:54 AM,32.0,28.9,88,30.08,0.5,NNE,5.8,-,N/A,Fog,Fog,20,2013-12-23 08:54:00
4:54 AM,30.9,28.9,92,30.09,0.5,NNE,8.1,-,N/A,Fog,Light Freezing Fog,20,2013-12-23 09:54:00
5:01 AM,30.9,28.9,92,30.09,0.8,NNE,8.1,-,N/A,,Mist,20,2013-12-23 10:01:00
5:22 AM,30.9,28.9,92,30.09,0.8,NNE,6.9,-,0.00,Rain,Light Freezing Rain,20,2013-12-23 10:22:00
5:45 AM,30.9,28.9,92,30.09,0.8,NNE,5.8,-,0.00,,Mist,20,2013-12-23 10:45:00
5:54 AM,30.9,28.9,92,30.08,0.8,NNE,5.8,-,0.00,,Mist,20,2013-12-23 10:54:00
6:39 AM,30.9,28.9,92,30.09,0.8,North,4.6,-,0.00,Rain,Light Freezing Rain,350,2013-12-23 11:39:00
6:49 AM,30.2,28.4,93,30.08,0.8,NE,6.9,-,0.00,,Mist,40,2013-12-23 11:49:00
6:54 AM,30.9,28.9,92,30.08,0.8,NE,4.6,-,0.00,,Mist,40,2013-12-23 11:54:00
7:10 AM,30.9,28.9,92,30.07,0.8,Calm,Calm,-,0.00,Rain,Light Freezing Rain,0,2013-12-23 12:10:00
7:21 AM,30.9,28.9,92,30.07,0.8,Calm,Calm,-,0.00,,Mist,0,2013-12-23 12:21:00
7:44 AM,30.9,28.0,89,30.07,0.5,North,3.5,-,0.00,Fog,Light Freezing Fog,360,2013-12-23 12:44:00
7:54 AM,32.0,28.9,88,30.07,0.2,NNE,6.9,-,0.00,Fog,Fog,30,2013-12-23 12:54:00
8:09 AM,30.9,28.9,92,30.11,0.5,NW,4.6,-,0.00,Fog-Rain,Light Freezing Rain,310,2013-12-23 13:09:00
8:24 AM,32.0,28.9,88,30.11,1.0,NNW,4.6,-,0.01,Rain,Light Freezing Rain,330,2013-12-23 13:24:00
8:52 AM,32.0,28.4,87,30.08,3.0,Calm,Calm,-,0.03,,Overcast,0,2013-12-23 13:52:00
8:54 AM,32.0,28.9,88,30.09,3.0,Calm,Calm,-,0.04,,Overcast,0,2013-12-23 13:54:00
9:54 AM,32.0,28.9,88,30.09,6.0,NNE,5.8,-,0.07,Rain,Light Freezing Rain,20,2013-12-23 14:54:00
10:07 AM,32.0,28.9,88,30.09,9.0,North,4.6,-,0.00,Rain,Light Freezing Rain,10,2013-12-23 15:07:00
10:54 AM,32.0,28.9,88,30.08,8.0,North,4.6,-,0.01,Rain,Light Freezing Rain,360,2013-12-23 15:54:00
11:54 AM,33.1,30.0,89,30.02,10.0,ENE,4.6,-,0.02,Rain,Light Freezing Rain,70,2013-12-23 16:54:00
12:13 PM,33.1,30.0,89,30.03,5.0,NNW,4.6,-,0.01,Rain,Light Freezing Rain,340,2013-12-23 17:13:00
12:31 PM,33.1,30.0,89,30.05,4.0,NW,6.9,-,0.03,Rain,Rain,320,2013-12-23 17:31:00
12:41 PM,33.1,30.9,92,30.03,4.0,Calm,Calm,-,0.04,Rain,Rain,0,2013-12-23 17:41:00
12:54 PM,33.1,30.0,89,30.01,4.0,SE,10.4,-,0.06,Rain,Light Rain,130,2013-12-23 17:54:00
1:13 PM,33.1,30.9,92,30.00,2.5,NE,3.5,-,0.04,Rain,Rain,40,2013-12-23 18:13:00
1:41 PM,34.0,30.9,89,30.01,2.5,NNW,4.6,-,0.06,Rain,Light Rain,340,2013-12-23 18:41:00
1:49 PM,33.8,30.2,87,30.01,3.0,NNW,4.6,-,0.06,Rain,Light Rain,330,2013-12-23 18:49:00
1:54 PM,34.0,30.9,89,30.01,2.5,North,4.6,-,0.06,Rain,Light Rain,10,2013-12-23 18:54:00
2:10 PM,34.0,30.9,89,30.01,3.0,NNW,5.8,-,0.00,Rain,Light Rain,330,2013-12-23 19:10:00
2:44 PM,34.0,30.9,89,30.00,4.0,Calm,Calm,-,0.00,Rain,Light Rain,0,2013-12-23 19:44:00
2:54 PM,34.0,30.9,89,30.01,4.0,Calm,Calm,-,0.01,Rain,Light Rain,0,2013-12-23 19:54:00
3:16 PM,35.1,32.0,89,30.01,2.0,Calm,Calm,-,0.02,Rain,Light Rain,0,2013-12-23 20:16:00
3:29 PM,34.0,30.9,89,29.99,3.0,Calm,Calm,-,0.03,Rain,Light Rain,0,2013-12-23 20:29:00
3:51 PM,35.6,32.0,87,30.03,2.5,Calm,Calm,-,0.07,Rain,Rain,0,2013-12-23 20:51:00
3:54 PM,35.1,32.0,89,30.03,2.0,Calm,Calm,-,0.07,Rain,Rain,0,2013-12-23 20:54:00
4:09 PM,35.1,32.0,89,30.00,4.0,ESE,3.5,-,0.03,Rain,Rain,110,2013-12-23 21:09:00
4:47 PM,35.1,32.0,89,30.01,6.0,Calm,Calm,-,0.05,,Overcast,0,2013-12-23 21:47:00
4:54 PM,34.0,32.0,92,30.03,4.0,South,4.6,-,0.05,Rain,Light Rain,190,2013-12-23 21:54:00
5:23 PM,35.1,32.0,89,30.02,4.0,Calm,Calm,-,0.00,Rain,Light Rain,0,2013-12-23 22:23:00
5:54 PM,35.1,32.0,89,30.06,6.0,SW,6.9,-,0.01,Rain,Light Rain,220,2013-12-23 22:54:00
6:42 PM,35.1,32.0,89,30.06,6.0,West,4.6,-,0.01,Rain,Light Rain,260,2013-12-23 23:42:00
6:54 PM,36.0,33.1,89,30.06,6.0,Calm,Calm,-,0.01,Rain,Light Rain,0,2013-12-23 23:54:00
7:01 PM,36.0,33.1,89,30.06,5.0,West,4.6,-,0.00,Rain,Light Rain,270,2013-12-24 00:01:00
7:54 PM,35.1,32.0,89,30.07,4.0,Calm,Calm,-,0.00,Rain,Light Rain,0,2013-12-24 00:54:00
8:20 PM,36.0,33.1,89,30.07,4.0,West,5.8,-,0.02,Rain,Light Rain,260,2013-12-24 01:20:00
8:54 PM,36.0,33.1,89,30.08,6.0,West,3.5,-,0.03,,Overcast,260,2013-12-24 01:54:00
9:25 PM,36.0,33.1,89,30.07,6.0,SW,3.5,-,N/A,,Overcast,220,2013-12-24 02:25:00
9:54 PM,36.0,33.1,89,30.06,7.0,Calm,Calm,-,N/A,,Overcast,0,2013-12-24 02:54:00
10:54 PM,37.0,33.1,86,30.10,10.0,West,3.5,-,N/A,,Overcast,270,2013-12-24 03:54:00
11:54 PM,37.0,33.1,86,30.10,10.0,NW,4.6,-,N/A,,Mostly Cloudy,310,2013-12-24 04:54:00